Location: Newark
(42.8481°N, 0.4872°E)
Time: 20:54:15
(UTC+00:00)

Transit 2A - Pass Details

Date: 05 November 2020
Orbit: 595 x 963 km, 66.7° (Epoch: 03 December)

Event Time Altitude Azimuth Distance (km) Brightness Sun altitude
Rises 00:26:05 0° 244° (WSW) 3,638 - -61.3°
Reaches altitude 10° 00:29:01 10° 255° (WSW) 2,697 - -61.1°
Maximum altitude 00:34:29 30° 314° (NW) 1,650 - -60.7°
Drops below altitude 10° 00:39:49 10° 14° (NNE) 2,621 - -60.2°
Sets 00:42:39 0° 26° (NNE) 3,519 - -59.9°
